[TLELIST] Archives

 

[list_settings.list_name] Current TLEs

December 11th 2009 PST

HST 1 20580U 90037B 09343.60367032 .00000302 00000-0 10356-4 0 4876 2 20580 028.4710 037.3903 0003225 346.8092 013.2428 15.00863663876232 ISS (ZARYA) 1 25544U 98067A 09344.41335486 .00010210 00000-0 67005-4 0 1475 2 25544 051.6443 121.1417 0008001 065.2147 336.3386 15.76432106633724 CXO 1 25867U 99040B 09343.66666667 .00000206 00000-0 10000-3 0 4029 2 25867 066.2231 062.3462 7846169 275.2384 358.7046 00.37805998 5675 ____________________________________________________________________ These 2-Line ...Continue Reading

[list_settings.list_name] Current TLEs

December 10th 2009 PST

HST 1 20580U 90037B 09342.60620715 .00000285 00000-0 90102-5 0 4862 2 20580 028.4709 043.8992 0003244 335.8347 024.2148 15.00863225876080 ISS (ZARYA) 1 25544U 98067A 09343.39854891 .00016599 00000-0 10634-3 0 1401 2 25544 051.6458 126.3715 0007981 060.9263 337.6056 15.76419387633561 CXO 1 25867U 99040B 09343.66666667 .00000206 00000-0 10000-3 0 4029 2 25867 066.2231 062.3462 7846169 275.2384 358.7046 00.37805998 5675 ____________________________________________________________________ These 2-Line ...Continue Reading

[list_settings.list_name] Current TLEs

December 9th 2009 PST

HST 1 20580U 90037B 09341.20975506 .00000255 00000-0 67157-5 0 4858 2 20580 028.4700 053.0175 0003254 317.9646 042.0597 15.00862537875878 ISS (ZARYA) 1 25544U 98067A 09342.39341047 .00009722 00000-0 64201-4 0 1336 2 25544 051.6460 131.5454 0007866 059.2585 031.1848 15.76361765633406 CXO 1 25867U 99040B 09341.04166667 .00000288 00000-0 10000-3 0 4013 2 25867 066.2084 062.4723 7842093 275.2422 001.2882 00.37808531 5660 ____________________________________________________________________ These 2-Line ...Continue Reading

[list_settings.list_name] Current TLEs

December 8th 2009 PST

HST 1 20580U 90037B 09341.20975506 .00000255 00000-0 67157-5 0 4858 2 20580 028.4700 053.0175 0003254 317.9646 042.0597 15.00862537875878 ISS (ZARYA) 1 25544U 98067A 09341.31187706 .00008216 00000-0 54971-4 0 1269 2 25544 051.6444 137.1194 0007726 059.0990 009.6319 15.76332740633239 CXO 1 25867U 99040B 09341.04166667 .00000288 00000-0 10000-3 0 4013 2 25867 066.2084 062.4723 7842093 275.2422 001.2882 00.37808531 5660 ____________________________________________________________________ These 2-Line ...Continue Reading

[list_settings.list_name] Current TLEs

December 7th 2009 PST

HST 1 20580U 90037B 09338.68284624 .00000360 00000-0 14795-4 0 4845 2 20580 028.4690 069.5105 0003396 289.8843 070.1349 15.00862710875492 ISS (ZARYA) 1 25544U 98067A 09340.42890369 .00008240 00000-0 55161-4 0 1186 2 25544 051.6448 141.6680 0007643 055.0623 039.6114 15.76317026633090 CXO 1 25867U 99040B 09341.04166667 .00000288 00000-0 10000-3 0 4013 2 25867 066.2084 062.4723 7842093 275.2422 001.2882 00.37808531 5660 ____________________________________________________________________ These 2-Line ...Continue Reading

[list_settings.list_name] Current TLEs

December 6th 2009 PST

HST 1 20580U 90037B 09338.68284624 .00000360 00000-0 14795-4 0 4845 2 20580 028.4690 069.5105 0003396 289.8843 070.1349 15.00862710875492 ISS (ZARYA) 1 25544U 98067A 09339.34636083 .00008328 00000-0 55749-4 0 1118 2 25544 051.6450 147.2460 0007664 052.1570 015.2600 15.76298550632924 CXO 1 25867U 99040B 09338.33333333 .00000284 00000-0 10000-3 0 4002 2 25867 066.2069 062.6454 7833731 275.2343 352.5557 00.37800900 5659 ____________________________________________________________________ These 2-Line ...Continue Reading

[list_settings.list_name] Current TLEs

December 5th 2009 PST

HST 1 20580U 90037B 09335.75695345 .00000415 00000-0 19004-4 0 4834 2 20580 028.4687 088.6049 0003454 259.9800 100.0422 15.00861827875058 ISS (ZARYA) 1 25544U 98067A 09338.33127149 .00014296 00000-0 92668-4 0 1060 2 25544 051.6462 152.4742 0007839 048.4465 014.8436 15.76299043632765 CXO 1 25867U 99040B 09338.33333333 .00000284 00000-0 10000-3 0 4002 2 25867 066.2069 062.6454 7833731 275.2343 352.5557 00.37800900 5659 ____________________________________________________________________ These 2-Line ...Continue Reading

[list_settings.list_name] Current TLEs

December 4th 2009 PST

HST 1 20580U 90037B 09335.75695345 .00000415 00000-0 19004-4 0 4834 2 20580 028.4687 088.6049 0003454 259.9800 100.0422 15.00861827875058 ISS (ZARYA) 1 25544U 98067A 09337.23980324 .00015002 00000-0 97159-4 0 1000 2 25544 051.6459 158.0971 0007739 044.4573 301.0053 15.76270787632582 CXO 1 25867U 99040B 09335.70833333 .00000367 00000-0 10000-3 0 3994 2 25867 066.2005 062.7496 7827629 275.2803 355.1025 00.37797827 5647 ____________________________________________________________________ These 2-Line ...Continue Reading

[list_settings.list_name] Current TLEs

December 3rd 2009 PST

HST 1 20580U 90037B 09335.75695345 .00000415 00000-0 19004-4 0 4834 2 20580 028.4687 088.6049 0003454 259.9800 100.0422 15.00861827875058 ISS (ZARYA) 1 25544U 98067A 09336.22603009 -.00015010 00000-0 -89495-4 0 958 2 25544 051.6457 163.3243 0007614 042.3613 306.5278 15.76215858632425 CXO 1 25867U 99040B 09335.70833333 .00000367 00000-0 10000-3 0 3994 2 25867 066.2005 062.7496 7827629 275.2803 355.1025 00.37797827 5647 ____________________________________________________________________ These 2-Line ...Continue Reading

[list_settings.list_name] Current TLEs

December 2nd 2009 PST

HST 1 20580U 90037B 09333.76202740 .00000435 00000-0 20545-4 0 4829 2 20580 028.4680 101.6267 0003435 239.2399 120.7924 15.00860943874752 ISS (ZARYA) 1 25544U 98067A 09335.30565878 .00011494 00000-0 75674-4 0 883 2 25544 051.6461 168.0634 0007435 037.3945 125.3902 15.76198372632285 CXO 1 25867U 99040B 09335.70833333 .00000367 00000-0 10000-3 0 3994 2 25867 066.2005 062.7496 7827629 275.2803 355.1025 00.37797827 5647 ____________________________________________________________________ These 2-Line ...Continue Reading
  • This mailing list is a public mailing list - anyone may join or leave, at any time.
  • This mailing list is announce-only.

International Space Station (ISS) / Hubble Space Telescope (HST) / Chandra X-Ray Observatory Orbital Data via EMAIL

Privacy Policy:

Private list